Lid_Strength_Index
5 5 5 6 6 6 6 6 5 5 6 6 6 5 5 5 5 5 4 3 5 6 6 5 4 5 5 6 8 6 6 7 7 9 9 9 10 8 9 9 10 12 13 12 11 13 13 5 5 8 5 5 5 5
5 5 5 5 5 6 6 6 5 5 6 5 6 6 5 5 5 5 5 4 4 6 6 3 3 3 3 4 5 5 7 6 6 9 9 9 11 9 9 12 7 12 10 12 11 10 6 5 6 5 5 5 5 5
4 4 4 4 4 4 5 5 5 6 5 5 6 5 5 5 5 5 5 6 6 7 5 4 4 2 2 2 2 7 6 5 5 4 8 9 11 8 12 10 9 8 7 10 9 7 7 6 5 4 4 4 4 4
3 3 3 3 3 3 4 4 4 5 5 5 5 5 5 5 5 5 6 5 6 7 8 5 2 4 2 2 2 3 4 4 4 4 7 9 10 6 10 9 9 8 7 9 9 7 6 5 4 4 4 3 4 4
3 3 2 3 3 3 4 4 5 5 5 5 5 5 5 5 5 5 5 5 4 5 7 7 4 3 3 3 4 4 5 5 5 7 8 9 6 7 7 7 9 6 8 10 11 7 7 6 4 3 4 4 3 4
4 3 3 3 3 3 4 5 5 5 5 5 5 5 5 5 5 5 7 4 3 4 7 9 4 4 4 5 4 4 5 6 6 7 7 5 4 7 9 9 5 4 4 5 7 5 4 4 3 3 3 3 3 4
4 4 3 3 3 3 4 5 5 5 5 5 5 5 5 5 5 7 7 5 3 3 7 9 8 4 3 3 2 4 4 5 5 6 7 6 6 5 8 10 6 5 4 4 5 5 5 4 5 3 3 3 3 4
4 3 3 3 4 4 5 5 5 5 5 5 5 5 5 5 6 7 3 4 4 5 7 11 9 6 3 5 6 4 6 5 6 6 5 7 6 6 10 6 5 4 4 4 4 4 4 3 3 3 2 3 4 4
4 4 5 4 4 5 5 5 5 5 5 5 5 5 4 6 7 5 3 3 3 5 9 9 11 11 3 5 4 5 5 10 6 8 7 7 8 10 7 6 5 4 5 4 4 4 4 4 4 3 4 4 4 3
4 4 5 5 4 4 4 5 5 4 5 5 4 6 7 5 4 3 4 6 6 6 7 10 8 10 7 7 7 6 6 9 12 8 5 9 9 5 4 4 4 4 3 3 5 5 5 5 4 4 3 3 3 3
4 4 4 4 4 4 4 4 4 5 5 4 5 5 4 5 4 6 8 8 7 9 8 8 9 10 6 9 9 5 8 7 12 10 9 10 10 6 4 4 4 3 3 3 3 3 3 4 4 3 3 3 3 3
4 4 4 4 3 3 4 4 5 4 4 5 6 5 5 5 7 9 9 8 8 10 7 8 8 8 7 6 8 7 9 8 12 6 10 13 7 5 5 5 4 3 3 4 3 3 3 3 3 3 3 3 2 2
3 4 3 3 3 3 3 4 4 4 4 4 6 8 7 7 12 11 12 10 10 8 6 7 8 7 7 7 8 9 11 11 7 11 11 9 7 5 5 4 4 3 3 3 3 3 3 3 2 2 2 2 2 2
3 3 3 3 3 3 3 4 4 3 4 6 8 12 9 10 8 7 8 7 5 5 6 6 7 8 7 9 9 12 10 10 13 15 13 9 7 5 5 4 4 5 4 4 4 3 3 3 3 2 2 2 2 2
3 3 3 3 3 3 3 3 4 2 4 7 8 11 8 6 5 4 5 5 4 4 6 7 7 8 9 10 9 11 12 14 13 13 10 8 6 6 5 5 5 5 4 4 3 3 3 3 3 2 2 2 2 2
2 3 3 3 3 3 3 4 3 2 5 7 8 9 6 6 6 5 5 5 3 4 5 5 8 10 11 11 13 13 14 14 12 9 7 6 6 6 5 5 4 4 4 3 3 3 3 2 2 2 2 2 2 2
3 2 4 3 3 3 3 4 4 6 7 8 9 6 6 6 7 6 4 4 3 5 7 7 10 11 9 12 12 11 12 10 8 7 6 6 6 6 5 5 5 4 3 3 3 2 2 2 1 2 3 2 2 2
3 3 3 3 3 3 3 4 5 7 8 7 7 6 5 5 6 5 4 4 5 5 6 7 7 10 12 13 11 9 8 7 6 6 6 5 5 4 4 5 4 4 4 4 4 4 3 3 3 3 3 2 2 2
3 2 3 3 3 3 7 6 5 8 7 6 6 5 5 5 3 3 4 4 3 4 5 6 8 9 10 8 7 7 7 6 7 6 5 4 4 4 4 4 4 4 4 4 4 4 3 3 3 3 3 3 3 2
3 3 3 3 3 6 7 6 5 7 8 6 6 6 5 4 3 3 4 4 4 5 7 8 7 6 6 5 5 5 5 4 5 6 5 4 3 3 3 3 3 3 4 3 3 6 3 4 3 3 3 3 4 3
4 4 4 3 4 5 6 7 7 6 6 7 5 5 5 4 5 5 5 3 5 6 6 6 6 5 3 3 3 3 3 3 4 4 4 4 3 3 3 3 2 2 3 3 3 4 4 3 3 2 3 3 3 2
4 4 5 4 6 6 7 5 7 6 7 6 6 5 6 6 6 5 3 6 6 5 4 4 4 4 4 4 3 3 2 2 2 3 5 4 4 3 3 3 3 3 3 3 3 3 3 2 2 2 2 2 2 2
3 4 5 6 8 9 9 5 8 7 8 7 5 7 7 7 5 3 7 5 5 3 3 3 3 2 3 2 2 2 2 3 3 3 3 3 2 2 2 2 2 3 3 2 2 2 2 4 2 2 1 1 1 2
4 6 8 8 9 10 6 8 6 7 6 7 8 9 8 7 4 6 8 5 4 3 3 3 3 3 3 3 3 2 2 2 3 2 2 3 3 3 2 2 1 2 2 1 2 2 2 2 4 1 1 1 1 1
10 10 9 12 8 9 10 8 7 7 9 8 9 8 8 6 9 9 8 6 5 4 4 3 2 3 4 4 3 2 1 2 3 4 3 2 2 2 2 1 2 1 1 2 2 2 2 1 2 2 1 1 1 2
12 8 10 9 8 9 8 9 9 9 8 9 8 7 7 9 10 10 8 5 5 4 4 4 4 4 3 2 3 3 2 1 2 3 2 2 2 2 2 3 3 2 1 1 2 2 2 2 2 2 2 2 6 2
12 10 7 5 6 6 7 6 6 7 8 9 9 9 9 12 11 8 5 3 3 2 3 2 2 3 3 3 2 2 1 1 2 2 1 1 0 0 2 3 3 2 1 1 1 1 2 2 2 2 2 2 2 2
8 8 9 7 7 6 8 8 9 9 7 6 7 10 10 10 9 5 4 2 2 2 2 2 1 1 2 2 2 2 1 1 1 1 1 1 0 0 0 1 0 6 1 1 1 1 1 1 2 2 2 2 2 1
8 7 6 8 7 8 7 8 8 6 4 5 7 7 7 4 4 4 2 2 2 2 3 3 2 1 2 1 1 1 1 1 3 4 4 4 3 2 1 1 0 0 0 1 8 5 1 1 1 1 1 2 2 1
8 6 7 8 8 8 6 5 6 5 4 5 6 6 6 5 4 1 2 2 3 3 3 3 2 2 3 2 2 2 1 0 1 2 4 4 3 1 1 0 1 0 0 1 1 1 7 2 3 1 2 1 1 1
5 6 7 7 7 6 5 5 5 5 5 6 5 6 7 6 3 2 2 2 3 3 3 3 3 2 2 2 2 3 3 2 1 1 1 1 1 1 1 0 0 0 0 0 1 1 1 2 1 1 1 1 2 2
6 7 7 8 7 4 4 5 6 6 5 5 6 5 5 6 7 5 2 2 3 4 4 3 3 3 1 1 1 1 5 1 1 1 0 0 1 0 0 0 0 0 0 1 1 1 1 1 2 2 1 1 1 1
7 7 7 7 7 7 5 5 6 6 5 6 6 5 6 7 8 5 1 1 2 3 3 2 2 1 1 1 1 1 3 0 5 9 8 8 7 4 0 -0 -0 0 0 0 1 1 1 1 1 1 1 1 1 1